TimeEDT,TemperatureF,Dew PointF,Humidity,Sea Level PressureIn,VisibilityMPH,Wind Direction,Wind SpeedMPH,Gust SpeedMPH,PrecipitationIn,Events,Conditions,WindDirDegrees,DateUTC
12:15 AM,47.7,47.7,100,30.13,10.0,Calm,Calm,-,N/A,,Clear,0,2013-10-21 04:15:00
12:35 AM,47.5,47.3,99,30.12,7.0,Calm,Calm,-,N/A,,Clear,0,2013-10-21 04:35:00
12:55 AM,46.8,46.8,100,30.12,7.0,Calm,Calm,-,N/A,,Clear,0,2013-10-21 04:55:00
1:15 AM,47.3,47.1,99,30.12,10.0,Calm,Calm,-,N/A,,Clear,0,2013-10-21 05:15:00
1:35 AM,46.4,46.4,100,30.12,10.0,North,3.5,-,N/A,,Clear,360,2013-10-21 05:35:00
1:55 AM,46.0,45.9,99,30.12,10.0,Calm,Calm,-,N/A,,Clear,0,2013-10-21 05:55:00
2:15 AM,46.0,45.9,99,30.12,10.0,Calm,Calm,-,N/A,,Clear,0,2013-10-21 06:15:00
2:35 AM,45.5,45.5,100,30.12,10.0,Calm,Calm,-,N/A,,Clear,0,2013-10-21 06:35:00
2:55 AM,45.5,45.5,100,30.12,10.0,NNE,3.5,-,N/A,,Clear,30,2013-10-21 06:55:00
3:15 AM,45.7,45.5,99,30.11,10.0,NNE,3.5,-,N/A,,Clear,20,2013-10-21 07:15:00
3:35 AM,45.5,44.8,97,30.11,10.0,Calm,Calm,-,N/A,,Clear,0,2013-10-21 07:35:00
3:55 AM,44.8,44.4,99,30.11,10.0,Calm,Calm,-,N/A,,Clear,0,2013-10-21 07:55:00
4:15 AM,44.6,44.6,100,30.11,10.0,Calm,Calm,-,N/A,,Clear,0,2013-10-21 08:15:00
4:35 AM,44.6,44.4,99,30.12,10.0,Calm,Calm,-,N/A,,Clear,0,2013-10-21 08:35:00
4:55 AM,44.1,43.9,99,30.12,10.0,Calm,Calm,-,N/A,,Clear,0,2013-10-21 08:55:00
5:15 AM,43.7,43.5,99,30.12,10.0,Calm,Calm,-,N/A,,Clear,0,2013-10-21 09:15:00
5:35 AM,43.7,43.7,100,30.12,10.0,NW,3.5,-,N/A,,Clear,320,2013-10-21 09:35:00
5:55 AM,43.3,43.3,100,30.12,7.0,Calm,Calm,-,N/A,,Clear,0,2013-10-21 09:55:00
6:15 AM,42.8,42.8,100,30.13,7.0,Calm,Calm,-,N/A,,Clear,0,2013-10-21 10:15:00
6:35 AM,43.0,43.0,100,30.13,10.0,Calm,Calm,-,N/A,,Clear,0,2013-10-21 10:35:00
6:55 AM,42.8,42.8,100,30.14,7.0,NW,4.6,-,N/A,,Clear,320,2013-10-21 10:55:00
7:15 AM,42.8,42.8,100,30.14,7.0,NW,4.6,-,N/A,,Clear,320,2013-10-21 11:15:00
7:35 AM,42.8,42.8,100,30.15,7.0,Calm,Calm,-,N/A,,Clear,0,2013-10-21 11:35:00
7:55 AM,43.2,43.2,100,30.15,7.0,NNW,3.5,-,N/A,,Clear,330,2013-10-21 11:55:00
8:15 AM,44.1,44.1,100,30.16,10.0,Calm,Calm,-,N/A,,Clear,0,2013-10-21 12:15:00
8:35 AM,46.6,45.7,97,30.16,10.0,Calm,Calm,-,N/A,,Clear,0,2013-10-21 12:35:00
8:55 AM,48.9,47.3,94,30.16,10.0,Calm,Calm,-,N/A,,Clear,0,2013-10-21 12:55:00
9:15 AM,51.8,48.2,88,30.16,10.0,Calm,Calm,-,N/A,,Clear,0,2013-10-21 13:15:00
9:35 AM,54.9,48.4,79,30.16,10.0,East,3.5,-,N/A,,Clear,80,2013-10-21 13:35:00
9:55 AM,56.5,48.0,73,30.16,10.0,ENE,3.5,-,N/A,,Clear,70,2013-10-21 13:55:00
10:15 AM,57.0,47.7,71,30.16,10.0,East,4.6,-,N/A,,Clear,100,2013-10-21 14:15:00
10:35 AM,57.7,48.6,71,30.16,10.0,Calm,Calm,-,N/A,,Clear,0,2013-10-21 14:35:00
10:55 AM,60.3,48.2,64,30.16,10.0,ENE,5.8,-,N/A,,Clear,70,2013-10-21 14:55:00
11:15 AM,61.2,46.0,58,30.15,10.0,East,4.6,-,N/A,,Clear,80,2013-10-21 15:15:00
11:35 AM,62.2,45.7,55,30.16,10.0,ESE,3.5,-,N/A,,Clear,110,2013-10-21 15:35:00
11:55 AM,62.8,44.6,51,30.16,10.0,Calm,Calm,-,N/A,,Clear,0,2013-10-21 15:55:00
12:15 PM,63.7,45.1,51,30.15,10.0,ENE,3.5,-,N/A,,Clear,70,2013-10-21 16:15:00
12:35 PM,64.2,43.5,47,30.15,10.0,Calm,Calm,-,N/A,,Clear,0,2013-10-21 16:35:00
12:55 PM,64.6,43.0,45,30.14,10.0,SE,3.5,-,N/A,,Clear,140,2013-10-21 16:55:00
1:15 PM,64.9,43.3,45,30.12,10.0,Calm,Calm,-,N/A,,Clear,0,2013-10-21 17:15:00
1:35 PM,65.1,42.6,44,30.12,10.0,SSE,3.5,-,N/A,,Clear,160,2013-10-21 17:35:00
1:55 PM,65.5,42.4,43,30.11,10.0,South,3.5,-,N/A,,Clear,170,2013-10-21 17:55:00
2:15 PM,65.5,42.1,43,30.10,10.0,Calm,Calm,-,N/A,,Clear,0,2013-10-21 18:15:00
2:35 PM,67.1,42.3,40,30.09,10.0,Calm,Calm,-,N/A,,Clear,0,2013-10-21 18:35:00
2:55 PM,66.7,42.6,42,30.08,10.0,West,3.5,-,N/A,,Clear,260,2013-10-21 18:55:00
3:15 PM,66.6,42.4,42,30.07,10.0,Calm,Calm,-,N/A,,Clear,0,2013-10-21 19:15:00
3:35 PM,67.3,41.9,40,30.07,10.0,Calm,Calm,-,N/A,,Clear,0,2013-10-21 19:35:00
3:55 PM,67.3,41.5,39,30.06,10.0,WSW,3.5,-,N/A,,Clear,250,2013-10-21 19:55:00
4:15 PM,66.4,41.0,40,30.07,10.0,SSW,3.5,-,N/A,,Clear,200,2013-10-21 20:15:00
4:35 PM,66.6,42.3,41,30.06,10.0,SSW,3.5,-,N/A,,Clear,200,2013-10-21 20:35:00
4:55 PM,65.5,44.1,46,30.07,10.0,Calm,Calm,-,N/A,,Clear,0,2013-10-21 20:55:00
5:15 PM,64.9,44.8,48,30.06,10.0,Calm,Calm,-,N/A,,Clear,0,2013-10-21 21:15:00
5:35 PM,64.8,44.2,47,30.06,10.0,Calm,Calm,-,N/A,,Clear,0,2013-10-21 21:35:00
5:55 PM,63.5,46.8,54,30.05,10.0,Calm,Calm,-,N/A,,Clear,0,2013-10-21 21:55:00
6:15 PM,62.8,48.4,59,30.05,10.0,Calm,Calm,-,N/A,,Clear,0,2013-10-21 22:15:00
6:35 PM,61.5,50.0,66,30.05,10.0,Calm,Calm,-,N/A,,Clear,0,2013-10-21 22:35:00
6:55 PM,60.1,48.9,67,30.06,10.0,Calm,Calm,-,N/A,,Clear,0,2013-10-21 22:55:00
7:15 PM,58.5,50.7,75,30.05,10.0,Calm,Calm,-,N/A,,Clear,0,2013-10-21 23:15:00
7:35 PM,58.6,51.3,76,30.05,10.0,Calm,Calm,-,N/A,,Clear,0,2013-10-21 23:35:00
7:55 PM,57.7,51.3,79,30.04,10.0,Calm,Calm,-,N/A,,Clear,0,2013-10-21 23:55:00
8:15 PM,57.0,50.9,80,30.05,10.0,Calm,Calm,-,N/A,,Clear,0,2013-10-22 00:15:00
8:35 PM,57.2,50.7,79,30.04,10.0,Calm,Calm,-,N/A,,Clear,0,2013-10-22 00:35:00
8:55 PM,56.3,50.9,82,30.05,10.0,Calm,Calm,-,N/A,,Clear,0,2013-10-22 00:55:00
9:15 PM,55.4,52.0,88,30.06,10.0,Calm,Calm,-,N/A,,Clear,0,2013-10-22 01:15:00
9:35 PM,55.9,50.7,83,30.05,10.0,Calm,Calm,-,N/A,,Clear,0,2013-10-22 01:35:00
9:55 PM,55.0,53.1,93,30.05,10.0,Calm,Calm,-,N/A,,Clear,0,2013-10-22 01:55:00
10:15 PM,55.0,52.9,92,30.05,10.0,Calm,Calm,-,N/A,,Clear,0,2013-10-22 02:15:00
10:35 PM,55.4,53.1,92,30.05,10.0,Calm,Calm,-,N/A,,Clear,0,2013-10-22 02:35:00
10:55 PM,54.5,53.1,95,30.04,10.0,Calm,Calm,-,N/A,,Clear,0,2013-10-22 02:55:00
11:15 PM,54.9,53.2,94,30.03,10.0,Calm,Calm,-,N/A,,Clear,0,2013-10-22 03:15:00
11:35 PM,54.5,52.9,94,30.02,10.0,Calm,Calm,-,N/A,,Clear,0,2013-10-22 03:35:00
11:55 PM,53.4,52.2,95,30.02,10.0,Calm,Calm,-,N/A,,Clear,0,2013-10-22 03:55:00